COSMOS 2251 DEB, 34611

Orbit data source: Space-Track

COSMOS 2251 DEB, 34611 is space debris in LEO originally from a launch on Wed, 16 Jun 1993 UTC launched from the Plesetsk Missile And Space Complex (PKMTR). The debris from Iridium 33, an American commercial communications satellite, has been tracked extensively since its accidental collision with the defunct Russian satellite Cosmos 2251 in 2009. This event, occurring at high speed in low Earth orbit (LEO), generated thousands of pieces of space debris, significantly increasing the risk of further collisions. The Iridium 33 debris cloud has impacted space traffic management and orbital debris mitigation strategies, making it a subject of ongoing study in space situational awareness.

Loading next visibility...
Identifier
34611, 1993-036WG
Orbit
LEO
Country
Flag of CISCIS
Related business
Manufacturer
Unknown
Mission
Spacecraft
Bus & Motor
Unknown
Mass
Unknown
Launch date (UTC)
1993-06-16 (33 years ago)
Launch vehicle
Unknown
Launch site
Plesetsk Missile And Space Complex (PKMTR)
Object type
Payload
Rocket body
Debris
Shape & HBR
Unknown shape, 0.1 m
Radar Cross Section
Small (<0.1 m²)

Expand to show TLE details & history
Last TLE update: 7 hours ago

TLE from 7 hours ago
0 COSMOS 2251 DEB
1 34611U 93036WG  26129.89173078  .00004399  00000-0  69744-3 0  9997
2 34611  74.0514 173.5564 0021372 184.0803 232.9875 14.72341705905697
Epoch: 2026-05-09T21:24Z
TLE epoch observation values (Epoch: 2026-05-09T21:24:05.539Z)
Latitude
53.74193°
Longitude
7.63162°
Altitude
671.15 km
Speed
7.522 km/s
True Right ascension
13h 05m 25s
True Declination
53° 34' 33"
Sunlit
Object was in daylight at epoch
Visualization orbit readout
Latitude
Unknown
Longitude
Unknown
Altitude
Unknown
Speed
Unknown
Apparent Right ascension
Unknown
Apparent Declination
Unknown
Sunlit
N/A
Visualization observer readout
Local Sidereal Time
13:01:52
Azimuth
Unknown
Elevation
Unknown
Doppler factor
Unknown
Orbital elements
Apogee altitude
666.208 km
Perigee altitude
636.162 km
Semi-major axis
7,029.322 km
Eccentricity
0.00214
Inclination
74.0514°
RAAN
173.5564°
Arg. of periapsis
184.0803°
True anomaly
232.79226°
Mean anomaly
232.9875°
Eccentric anomaly
232.88985°
Mean motion
3.68276 °/min
Orbital period
97.75 mins
BSTAR
0.00069744

Documentation

Showing up to 5 results
|